| time (UTC) | temp F | wind direction | speed MPH | gust MPH | rain 1hr in | rain 24hr in | rain mn in | humidity % | barometer mb |
| 20260502191540 | 72 | 286 | 4.0 | 11.0 | 0.00 | 0.00 | 0.00 | 1 | 1012.0 |
| 20260502190031 | 70 | 293 | 3.0 | 10.0 | 0.00 | 0.00 | 0.00 | 1 | 1012.2 |
| 20260502184527 | 69 | 55 | 3.0 | 6.0 | 0.00 | 0.00 | 0.00 | 1 | 1012.3 |
| 20260502183023 | 66 | 188 | 3.0 | 6.0 | 0.00 | 0.00 | 0.00 | 1 | 1012.9 |
| 20260502181517 | 63 | 54 | 1.0 | 6.0 | 0.00 | 0.00 | 0.00 | 1 | 1013.0 |
| 20260502163050 | 60 | 52 | 0.0 | 4.0 | 0.00 | 0.00 | 0.00 | 1 | 1013.8 |
| 20260502161603 | 59 | 102 | 0.0 | 2.0 | 0.00 | 0.00 | 0.00 | 1 | 1013.9 |
| 20260502151527 | 58 | 66 | 1.0 | 4.0 | 0.00 | 0.00 | 0.00 | 1 | 1013.6 |
| 20260502130149 | 58 | 75 | 0.0 | 0.0 | 0.00 | 0.00 | 0.00 | 1 | 1012.9 |
| 20260502123111 | 58 | 76 | 0.0 | 0.0 | 0.00 | 0.00 | 0.00 | 1 | 1012.9 |
| 20260502121538 | 58 | 76 | 0.0 | 1.0 | 0.00 | 0.00 | 0.00 | 1 | 1012.6 |
| 20260502114530 | 57 | 342 | 0.0 | 0.0 | 0.00 | 0.00 | 0.00 | 1 | 1012.6 |
| 20260502113025 | 57 | 342 | 0.0 | 2.0 | 0.00 | 0.00 | 0.00 | 1 | 1012.5 |
| 20260502111522 | 57 | 342 | 0.0 | 2.0 | 0.00 | 0.00 | 0.00 | 1 | 1012.5 |
| 20260502110016 | 56 | 341 | 0.0 | 2.0 | 0.00 | 0.00 | 0.00 | 1 | 1012.5 |
| 20260502104512 | 56 | 341 | 2.0 | 4.0 | 0.00 | 0.00 | 0.00 | 1 | 1012.4 |
| 20260502103011 | 56 | 344 | 1.0 | 4.0 | 0.00 | 0.00 | 0.00 | 1 | 1012.2 |
| 20260502101503 | 55 | 343 | 0.0 | 4.0 | 0.00 | 0.00 | 0.00 | 1 | 1012.2 |
| 20260502071510 | 55 | 330 | 2.0 | 4.0 | 0.00 | 0.00 | 0.00 | 1 | 1013.2 |
| 20260502070005 | 56 | 323 | 1.0 | 4.0 | 0.00 | 0.00 | 0.00 | 1 | 1013.0 |
| 20260502064505 | 55 | 335 | 1.0 | 4.0 | 0.00 | 0.00 | 0.00 | 1 | 1012.9 |
| 20260502063004 | 54 | 302 | 4.0 | 7.0 | 0.00 | 0.00 | 0.00 | 1 | 1013.0 |
| 20260502061503 | 54 | 323 | 2.0 | 4.0 | 0.00 | 0.00 | 0.00 | 1 | 1013.1 |
| 20260502060003 | 55 | 297 | 0.0 | 3.0 | 0.00 | 0.00 | 0.00 | 1 | 1013.2 |
| 20260502054504 | 55 | 294 | 1.0 | 3.0 | 0.00 | 0.00 | 0.00 | 1 | 1013.2 |
| 20260502053002 | 55 | 294 | 1.0 | 3.0 | 0.00 | 0.00 | 0.00 | 1 | 1013.1 |
| 20260502051601 | 55 | 271 | 0.0 | 3.0 | 0.00 | 0.00 | 0.00 | 1 | 1013.0 |
| 20260502050054 | 56 | 269 | 0.0 | 3.0 | 0.00 | 0.00 | 0.00 | 1 | 1013.0 |
| 20260502044550 | 56 | 269 | 0.0 | 2.0 | 0.00 | 0.00 | 0.00 | 1 | 1013.0 |
| 20260502043050 | 57 | 269 | 0.0 | 3.0 | 0.00 | 0.00 | 0.00 | 1 | 1012.8 |
| 20260502041546 | 57 | 268 | 0.0 | 2.0 | 0.00 | 0.00 | 0.00 | 1 | 1012.8 |
| 20260502040035 | 57 | 268 | 0.0 | 2.0 | 0.00 | 0.00 | 0.00 | 1 | 1012.7 |
| 20260502034532 | 57 | 269 | 0.0 | 0.0 | 0.00 | 0.00 | 0.00 | 1 | 1012.6 |
| 20260502033034 | 58 | 269 | 0.0 | 2.0 | 0.00 | 0.00 | 0.00 | 1 | 1012.6 |
| 20260502031522 | 58 | 269 | 1.0 | 4.0 | 0.00 | 0.00 | 0.00 | 1 | 1012.3 |
| 20260502030025 | 58 | 267 | 2.0 | 7.0 | 0.00 | 0.00 | 0.00 | 1 | 1012.1 |
| 20260502024517 | 59 | 228 | 3.0 | 9.0 | 0.00 | 0.00 | 0.00 | 1 | 1012.0 |
| 20260502023014 | 60 | 265 | 4.0 | 8.0 | 0.00 | 0.00 | 0.00 | 1 | 1011.9 |
| 20260502021509 | 62 | 237 | 5.0 | 9.0 | 0.00 | 0.00 | 0.00 | 1 | 1011.7 |
| 20260502020005 | 64 | 254 | 3.0 | 10.0 | 0.00 | 0.00 | 0.00 | 1 | 1011.5 |
| 20260502014600 | 66 | 290 | 3.0 | 11.0 | 0.00 | 0.00 | 0.00 | 1 | 1011.4 |
| 20260502013058 | 68 | 230 | 4.0 | 12.0 | 0.00 | 0.00 | 0.00 | 1 | 1011.2 |
| 20260502011551 | 69 | 263 | 4.0 | 11.0 | 0.00 | 0.00 | 0.00 | 1 | 1010.9 |
| 20260502010052 | 71 | 221 | 6.0 | 12.0 | 0.00 | 0.00 | 0.00 | 1 | 1010.9 |
| 20260502004558 | 72 | 226 | 7.0 | 12.0 | 0.00 | 0.00 | 0.00 | 1 | 1010.6 |
| 20260502003041 | 73 | 193 | 5.0 | 12.0 | 0.00 | 0.00 | 0.00 | 1 | 1010.6 |
| 20260502001537 | 74 | 200 | 4.0 | 11.0 | 0.00 | 0.00 | 0.00 | 1 | 1010.5 |
| 20260502000033 | 73 | 244 | 3.0 | 12.0 | 0.00 | 0.00 | 0.00 | 1 | 1010.6 |
| 20260501234527 | 74 | 275 | 4.0 | 12.0 | 0.00 | 0.00 | 0.00 | 1 | 1010.4 |
| 20260501233022 | 74 | 205 | 4.0 | 8.0 | 0.00 | 0.00 | 0.00 | 1 | 1010.4 |
| 20260501231520 | 74 | 172 | 5.0 | 10.0 | 0.00 | 0.00 | 0.00 | 1 | 1010.6 |
| 20260501230014 | 74 | 244 | 5.0 | 11.0 | 0.00 | 0.00 | 0.00 | 1 | 1010.8 |
| 20260501224509 | 74 | 289 | 5.0 | 17.0 | 0.00 | 0.00 | 0.00 | 1 | 1011.1 |
| 20260501223009 | 74 | 175 | 4.0 | 11.0 | 0.00 | 0.00 | 0.00 | 1 | 1011.2 |
| 20260501221608 | 74 | 257 | 4.0 | 13.0 | 0.00 | 0.00 | 0.00 | 1 | 1011.4 |
| 20260501214552 | 74 | 180 | 6.0 | 13.0 | 0.00 | 0.00 | 0.00 | 1 | 1011.4 |
| 20260501213050 | 74 | 210 | 8.0 | 16.0 | 0.00 | 0.00 | 0.00 | 1 | 1011.6 |
| 20260501211542 | 74 | 253 | 7.0 | 16.0 | 0.00 | 0.00 | 0.00 | 1 | 1011.6 |
| 20260501210043 | 75 | 225 | 7.0 | 12.0 | 0.00 | 0.00 | 0.00 | 1 | 1011.7 |
| 20260501204533 | 76 | 239 | 6.0 | 12.0 | 0.00 | 0.00 | 0.00 | 1 | 1011.9 |
| 20260501203029 | 76 | 184 | 4.0 | 13.0 | 0.00 | 0.00 | 0.00 | 1 | 1011.4 |
| 20260501201531 | 75 | 263 | 6.0 | 10.0 | 0.00 | 0.00 | 0.00 | 1 | 1011.4 |
| 20260501200020 | 75 | 202 | 2.0 | 10.0 | 0.00 | 0.00 | 0.00 | 1 | 1011.8 |
| 20260501194519 | 75 | 173 | 1.0 | 7.0 | 0.00 | 0.00 | 0.00 | 1 | 1011.7 |
| 20260501193011 | 73 | 156 | 3.0 | 14.0 | 0.00 | 0.00 | 0.00 | 1 | 1012.2 |